DateTimeUTC,F1_A11,F1_S11,BsB_S11,BsG_S11,BsR_S11,BbsB_S11,BbsG_S11,BbsR_S11,BaB_A11,BaG_A11,BaR_A11,Tu_S11,T_S11,Uu_S11,U_S11,P_S11,T1_A11
2021-09-11T14:00:00Z,00000200,21000000,,,,,,,-000.09,-000.23,-000.11,19.2,26.0,,00.0,0667.9,31.1
2021-09-11T14:01:00Z,00000200,21000000,,,,,,,0000.35,0000.25,0000.13,19.2,26.0,,00.0,0667.9,31.1
2021-09-11T14:02:00Z,00000200,21000000,,,,,,,-000.06,0000.02,-000.17,19.3,26.1,,00.0,0667.9,31.1
2021-09-11T14:03:00Z,00000200,61000000,,,,,,,0000.14,-000.04,-000.18,19.3,26.1,,00.0,0667.9,31.1
2021-09-11T14:04:00Z,00000200,41000000,0001.68,0000.51,0000.71,0000.39,0000.20,0000.09,-000.30,0000.08,0000.12,19.4,25.9,,00.0,0668.8,31.1
2021-09-11T14:05:00Z,00000200,01000000,0001.14,0000.88,0000.70,0000.67,0000.06,-000.12,0000.20,-000.13,-000.01,19.5,25.9,,00.0,0668.9,31.1
2021-09-11T14:06:00Z,00000200,01000000,0001.18,0000.26,0000.44,0000.52,0000.16,0000.19,0000.30,0000.29,0000.31,19.4,25.9,,00.0,0668.9,31.1
2021-09-11T14:07:00Z,00000200,01000000,0001.13,0000.54,0000.43,0001.00,0000.08,0000.39,0000.02,0000.09,0000.04,19.3,25.8,,00.0,0668.9,31.1
2021-09-11T14:08:00Z,00000200,01000000,0001.40,0000.34,0000.69,0000.60,0000.11,-000.22,0000.39,0000.10,0000.42,19.3,25.8,,00.0,0668.9,31.1
2021-09-11T14:09:00Z,00000200,01000000,0000.91,0000.47,0000.63,-000.06,0000.16,0000.24,0000.33,0000.09,-000.16,19.3,25.8,,00.0,0668.9,31.0
2021-09-11T14:10:00Z,00000200,01000000,0001.46,0000.63,0000.29,0000.48,0000.13,0000.21,-000.21,0000.36,0000.07,19.2,25.7,,00.0,0668.9,31.0
2021-09-11T14:11:00Z,00000200,01000000,0000.70,0000.56,0000.62,0000.22,0000.29,0000.42,0000.64,0000.25,0000.44,19.2,25.7,,00.0,0668.9,31.0
2021-09-11T14:12:00Z,00000200,01000000,0001.21,0000.56,0000.52,0000.23,0000.51,0000.05,0000.08,0000.43,-000.07,19.2,25.6,,00.0,0668.9,31.0
2021-09-11T14:13:00Z,00000200,01000000,0002.00,0000.31,0000.57,0000.26,-000.12,-000.03,0000.38,0000.13,0000.68,19.2,25.7,,00.0,0668.9,31.0
2021-09-11T14:14:00Z,00000200,01000000,0000.32,0000.72,0000.72,0000.64,0000.19,-000.02,0000.48,0000.54,0000.39,19.3,25.7,,00.0,0668.9,31.1
2021-09-11T14:15:00Z,00000200,01000000,0002.06,0000.44,0000.63,0000.03,0000.10,0000.09,0000.53,0000.32,-000.02,19.4,25.8,,00.0,0668.9,31.1
2021-09-11T14:16:00Z,00000200,01000000,0001.33,0000.54,0000.55,0000.22,0000.14,0000.42,-000.01,0000.05,0000.14,19.5,25.8,,00.0,0668.9,31.1
2021-09-11T14:17:00Z,00000200,01000000,0000.89,0000.67,0000.45,0000.34,0000.28,-000.07,-000.14,0000.32,0000.18,19.6,25.9,,00.0,0668.9,31.1
2021-09-11T14:18:00Z,00000200,01000000,0001.39,0000.62,0000.73,0000.71,0000.14,0000.18,0000.21,-000.13,0000.02,19.6,25.9,,00.0,0668.9,31.1
2021-09-11T14:19:00Z,00000200,01000000,0000.65,0000.51,0000.47,0000.59,0000.12,0000.29,-000.13,-000.09,0000.12,19.6,25.9,,00.0,0668.9,31.1
2021-09-11T14:20:00Z,00000200,01000000,0000.87,0000.79,0000.63,0000.68,0000.08,0000.14,0000.38,0000.52,-000.03,19.5,25.8,,00.0,0668.9,31.1
2021-09-11T14:21:00Z,00000200,01000000,0000.56,0000.53,0000.68,-000.09,-000.02,-000.10,-000.17,-000.37,-000.03,19.5,25.8,,00.0,0668.9,31.1
2021-09-11T14:22:00Z,00000200,01000000,0000.60,0000.46,0000.55,0000.53,0000.31,0000.17,0000.17,0000.27,0000.00,19.4,25.8,,00.0,0668.8,31.1
2021-09-11T14:23:00Z,00000200,01000000,0001.16,0000.35,0000.77,0000.47,0000.09,0000.52,0000.42,-000.15,-000.30,19.4,25.8,,00.0,0668.8,31.1
2021-09-11T14:24:00Z,00000200,01000000,0001.44,0000.31,0000.39,-000.23,-000.07,0000.07,-000.00,0000.09,0000.38,19.3,25.8,,00.0,0668.8,31.1
2021-09-11T14:25:00Z,00000200,01000000,-000.02,0000.63,0000.46,0000.51,-000.13,0000.05,0000.27,0000.59,0000.37,19.3,25.7,,00.0,0668.8,31.1
2021-09-11T14:26:00Z,00000200,01000000,0001.78,0000.45,0000.42,0000.77,0000.30,0000.14,0000.21,0000.05,0000.20,19.2,25.7,,00.0,0668.8,31.1
2021-09-11T14:27:00Z,00000200,01000000,0000.85,0000.10,0000.43,0000.84,0000.23,0000.32,0000.46,0000.36,0000.31,19.2,25.7,,00.0,0668.9,31.1
2021-09-11T14:28:00Z,00000200,01000000,0001.58,0000.39,0000.64,0000.32,0000.16,0000.07,0000.06,0000.35,0000.19,19.3,25.7,,00.0,0668.8,31.1
2021-09-11T14:29:00Z,00000200,01000000,0001.24,0000.77,0000.53,0000.51,0000.15,0000.23,0000.78,0000.68,0000.89,19.4,25.7,,00.0,0668.8,31.1
2021-09-11T14:30:00Z,00000200,01000000,0001.23,0000.96,0000.52,0000.58,-000.08,0000.33,0000.35,0000.24,-000.11,19.5,25.8,,00.0,0668.8,31.1
2021-09-11T14:31:00Z,00000200,01000000,0000.72,0000.74,0000.62,0000.57,-000.02,0000.18,0000.03,0000.35,0000.01,19.6,25.8,,00.0,0668.9,31.1
2021-09-11T14:32:00Z,00000200,01000000,0000.83,0000.59,0000.29,0000.38,-000.13,0000.19,0000.59,0000.26,0000.43,19.7,25.9,,00.0,0668.9,31.1
2021-09-11T14:33:00Z,00000200,01000000,0000.91,0000.32,0000.63,-000.40,0000.20,0000.38,0000.31,0000.15,0000.30,19.8,25.9,,00.0,0668.9,31.1
2021-09-11T14:34:00Z,00000200,01000000,0001.38,0000.73,0000.49,0000.46,0000.27,0000.12,0000.05,0000.22,0000.06,19.9,26.0,,00.0,0668.9,31.1
2021-09-11T14:35:00Z,00000200,01000000,0001.54,0000.73,0000.30,0000.08,0000.34,0000.38,-000.29,-000.07,-000.21,19.9,26.0,,00.0,0668.9,31.1
2021-09-11T14:36:00Z,00000200,01000000,0000.60,0000.48,0000.17,0000.43,0000.51,0000.34,0000.12,-000.24,-000.09,19.8,26.0,,00.0,0668.9,31.1
2021-09-11T14:37:00Z,00000200,01000000,0000.77,0000.79,0000.35,0000.64,0000.04,0000.26,-000.10,0000.30,0000.18,19.8,26.0,,00.0,0668.8,31.1
2021-09-11T14:38:00Z,00000200,01000000,0001.42,0000.57,0000.56,0000.70,0000.03,0000.46,0000.31,0000.14,0000.08,19.7,25.9,,00.0,0668.8,31.1
2021-09-11T14:39:00Z,00000200,01000000,0001.26,0000.29,0000.39,0000.40,0000.07,0000.40,0000.05,-000.03,-000.35,19.6,25.9,,00.0,0668.8,31.1
2021-09-11T14:40:00Z,00000200,01000000,0001.55,0000.38,0000.71,0000.30,-000.13,0000.34,0000.20,0000.25,0000.41,19.6,25.9,,00.0,0668.8,31.1
2021-09-11T14:41:00Z,00000200,01000000,0000.99,0000.86,0000.39,0000.31,0000.23,0000.18,0000.18,0000.38,0000.35,19.5,25.9,,00.0,0668.8,31.1
2021-09-11T14:42:00Z,00000200,01000000,0001.05,0000.48,0000.45,0000.42,-000.10,0000.15,0000.50,-000.04,0000.26,19.5,25.8,,00.0,0668.8,31.1
2021-09-11T14:43:00Z,00000200,01000000,0001.04,0000.72,0000.48,0000.13,0000.05,0000.21,0000.50,0000.63,0000.30,19.6,25.8,,00.0,0668.8,31.1
2021-09-11T14:44:00Z,00000200,01000000,0000.99,0000.78,0000.35,0000.26,0000.15,0000.35,0000.09,0000.42,0000.15,19.7,25.9,,00.0,0668.9,31.1
2021-09-11T14:45:00Z,00000200,01000000,0000.58,0000.77,0000.01,0000.29,0000.35,-000.43,0000.54,0000.01,0000.43,19.8,26.0,,00.0,0668.8,31.1
2021-09-11T14:46:00Z,00000200,01000000,0000.43,0000.69,0000.79,0000.46,0000.47,0000.11,0000.15,0000.52,0000.42,19.8,26.0,,00.0,0668.8,31.1
2021-09-11T14:47:00Z,00000200,01000000,0001.30,0000.38,0000.66,0000.47,-000.03,0000.26,0000.19,-000.14,-000.25,19.9,26.1,,00.0,0668.8,31.1
2021-09-11T14:48:00Z,00000200,01000000,0001.21,0000.75,0000.27,0000.36,0000.30,0000.10,0000.12,0000.04,0000.09,19.9,26.1,,00.0,0668.8,31.1
2021-09-11T14:49:00Z,00000200,01000000,0000.66,0000.44,0000.42,0000.19,0000.31,0000.30,-000.13,-000.11,-000.07,19.9,26.1,,00.0,0668.8,31.1
2021-09-11T14:50:00Z,00000200,01000000,0000.64,0000.62,0000.55,0000.45,0000.35,0000.32,0000.05,0000.21,0000.05,19.8,26.0,,00.0,0668.8,31.1
2021-09-11T14:51:00Z,00000200,01000000,0001.12,0000.41,0000.34,-000.20,0000.15,0000.11,0000.23,0000.05,0000.10,19.8,26.0,,00.0,0668.8,31.1
2021-09-11T14:52:00Z,00000200,01000000,0001.55,0000.73,0000.31,-000.25,0000.06,0000.32,-000.19,-000.20,-000.14,19.7,26.0,,00.0,0668.8,31.1
2021-09-11T14:53:00Z,00000200,01000000,0000.93,0000.39,0000.59,0000.65,-000.09,-000.11,0000.25,0000.08,0000.12,19.6,26.0,,00.0,0668.8,31.1
2021-09-11T14:54:00Z,00000200,01000000,0000.33,0000.27,0000.92,0000.54,0000.14,0000.09,0000.03,0000.31,0000.22,19.6,25.9,,00.0,0668.8,31.1
2021-09-11T14:55:00Z,00000200,01000000,0001.74,0000.71,0000.45,0000.27,0000.19,0000.12,-000.05,-000.26,0000.12,19.5,25.9,,00.0,0668.8,31.1
2021-09-11T14:56:00Z,00000200,01000000,0001.04,0000.63,0000.33,0000.49,0000.21,0000.02,0000.51,0000.57,-000.08,19.5,25.9,,00.0,0668.8,31.1
2021-09-11T14:57:00Z,00000200,41000000,,,,,,,0000.10,0000.13,0000.44,19.5,25.9,,00.0,0668.8,31.1
2021-09-11T14:58:00Z,00000200,61000000,,,,,,,0000.40,0000.29,0000.05,19.3,26.0,,00.0,0667.9,31.1
2021-09-11T14:59:00Z,00000200,21000000,,,,,,,-000.35,0000.10,-000.13,19.3,26.1,,00.0,0667.8,31.1
